EW4939 Weather Reports


Display with metric or nautical units.
time (UTC)temp
F
wind
direction
speed
MPH
gust
MPH
rain 1hr
in
rain 24hr
in
rain mn
in
humidity
%
barometer
mb
20260505125001 58 141 2.0 4.0 0.00 0.20 0.20 96 1008.6
20260505124457 58 154 2.0 3.0 0.00 0.20 0.20 96 1008.4
20260505123953 58 153 2.0 4.0 0.00 0.20 0.20 97 1008.3
20260505123450 58 174 2.0 4.0 0.00 0.20 0.20 97 1008.7
20260505122946 58 147 2.0 2.0 0.00 0.20 0.20 98 1009.1
20260505122444 57 180 1.0 3.0 0.00 0.20 0.20 98 1009.1
20260505121940 57 158 2.0 4.0 0.00 0.20 0.20 98 1009.3
20260505121437 57 194 1.0 2.0 0.00 0.20 0.20 99 1009.2
20260505120933 57 143 1.0 3.0 0.00 0.20 0.20 99 1009.2
20260505120430 57 191 1.0 2.0 0.00 0.20 0.20 99 1009.2
20260505115929 57 190 2.0 3.0 0.00 0.20 0.20 99 1009.3
20260505115426 57 171 2.0 3.0 0.00 0.20 0.20 99 1009.4
20260505114924 57 170 2.0 3.0 0.00 0.20 0.20 99 1009.3
20260505114419 57 185 4.0 4.0 0.00 0.20 0.20 99 1009.2
20260505113916 57 171 1.0 4.0 0.00 0.20 0.20 99 1008.8
20260505113413 57 199 2.0 2.0 0.05 0.20 0.20 99 1008.8
20260505112908 57 176 2.0 3.0 0.00 0.19 0.19 99 1008.8
20260505112406 57 179 1.0 2.0 0.00 0.19 0.19 99 1008.6
20260505111902 56 179 2.0 3.0 0.00 0.19 0.19 99 1008.4
20260505111357 56 182 2.0 3.0 0.00 0.19 0.19 99 1008.4
20260505110853 56 171 2.0 3.0 0.00 0.19 0.19 99 1008.0
20260505110351 56 192 1.0 2.0 0.00 0.19 0.19 99 1008.0
20260505101821 57 184 0.0 0.0 0.12 0.18 0.18 97 1009.3
20260505101316 57 211 0.0 0.0 0.24 0.17 0.17 97 1009.4
20260505100812 57 25 0.0 0.0 0.31 0.16 0.16 96 1009.5
20260505100309 57 22 0.0 0.0 0.19 0.13 0.13 96 1009.6
20260505095805 57 14 0.0 0.0 0.17 0.11 0.11 96 1009.9
20260505095304 58 265 0.0 1.0 0.19 0.10 0.10 95 1010.0
20260505094758 58 2 0.0 0.0 0.12 0.08 0.08 95 1009.9
20260505094255 58 315 1.0 2.0 0.12 0.07 0.07 94 1009.7
20260505093751 58 330 0.0 2.0 0.07 0.06 0.06 93 1009.7
20260505093249 58 357 1.0 2.0 0.05 0.05 0.05 93 1009.4
20260505092745 58 304 1.0 2.0 0.05 0.05 0.05 92 1009.2
20260505092244 59 315 2.0 4.0 0.12 0.04 0.04 91 1009.2
20260505091741 59 354 1.0 2.0 0.12 0.03 0.03 89 1009.2
20260505091239 60 198 0.0 0.0 0.12 0.02 0.02 85 1008.5
20260505090736 61 94 1.0 1.0 0.05 0.01 0.01 83 1008.5
20260505090234 62 317 3.0 4.0 0.00 0.00 0.00 77 1008.9
20260505085731 63 355 1.0 1.0 0.00 0.00 0.00 71 1008.4
20260505085229 64 271 0.0 0.0 0.00 0.00 0.00 66 1008.2
20260505084726 64 271 0.0 0.0 0.00 0.00 0.00 65 1008.1
20260505084226 64 271 0.0 0.0 0.00 0.00 0.00 65 1008.0
20260505083722 64 271 0.0 0.0 0.00 0.00 0.00 64 1007.9
20260505083219 64 271 0.0 0.0 0.00 0.00 0.00 64 1007.9
20260505082715 65 271 0.0 0.0 0.00 0.00 0.00 62 1007.8
20260505082212 65 219 0.0 1.0 0.00 0.00 0.00 62 1007.6
20260505081708 65 175 0.0 1.0 0.00 0.00 0.00 62 1007.3
20260505081206 65 176 0.0 1.0 0.00 0.00 0.00 62 1007.2
20260505080702 65 199 0.0 1.0 0.00 0.00 0.00 62 1007.2
20260505080158 65 190 2.0 4.0 0.00 0.00 0.00 61 1007.3
20260505075654 66 198 0.0 1.0 0.00 0.00 0.00 61 1007.2
20260505075151 66 202 1.0 3.0 0.00 0.00 0.00 60 1007.3
20260505074648 66 149 0.0 0.0 0.00 0.00 0.00 60 1007.5
20260505074145 66 160 1.0 1.0 0.00 0.00 0.00 60 1007.4
20260505073643 66 186 1.0 1.0 0.00 0.00 0.00 59 1007.4
20260505073141 66 202 1.0 2.0 0.00 0.00 0.00 59 1007.2
20260505072636 67 172 0.0 2.0 0.00 0.00 0.00 58 1007.2
20260505072133 67 201 0.0 2.0 0.00 0.00 0.00 58 1007.0
20260505071628 67 152 2.0 3.0 0.00 0.00 0.00 57 1007.3
20260505071126 67 188 2.0 4.0 0.00 0.00 0.00 57 1006.8
20260505070623 67 168 2.0 3.0 0.00 0.00 0.00 57 1006.9
20260505070119 67 183 2.0 6.0 0.00 0.00 0.00 56 1006.9
20260505065616 67 206 2.0 3.0 0.00 0.00 0.00 57 1006.8
20260505065112 67 213 4.0 7.0 0.00 0.00 0.00 56 1006.9
20260505064609 68 208 1.0 7.0 0.00 0.00 0.00 56 1006.7
20260505064108 68 178 2.0 4.0 0.00 0.00 0.00 56 1006.7
20260505063605 68 164 5.0 7.0 0.00 0.00 0.00 56 1006.6
20260505063100 68 177 6.0 7.0 0.00 0.00 0.00 55 1006.7
20260505062557 68 221 2.0 7.0 0.00 0.00 0.00 55 1006.9
20260505062054 68 284 1.0 3.0 0.00 0.00 0.00 55 1006.6
20260505061552 68 174 5.0 9.0 0.00 0.00 0.00 55 1006.6
20260505061050 68 181 2.0 6.0 0.00 0.00 0.00 55 1006.7
20260505060547 68 187 4.0 7.0 0.00 0.00 0.00 55 1006.5
20260505060044 68 191 6.0 8.0 0.00 0.00 0.00 54 1006.5
20260505055539 68 201 1.0 4.0 0.00 0.00 0.00 55 1006.5
20260505055036 68 190 4.0 7.0 0.00 0.00 0.00 55 1006.2
20260505054533 69 188 2.0 4.0 0.00 0.00 0.00 54 1006.2
20260505054031 69 181 3.0 6.0 0.00 0.00 0.00 54 1006.2
20260505053528 69 211 2.0 8.0 0.00 0.00 0.00 53 1006.1
20260505053025 69 147 4.0 9.0 0.00 0.00 0.00 53 1006.0
20260505052522 69 177 4.0 6.0 0.00 0.00 0.00 53 1005.9
20260505052019 70 194 3.0 11.0 0.00 0.00 0.00 52 1006.0
20260505051516 69 180 4.0 8.0 0.00 0.00 0.00 52 1005.9
20260505051014 69 170 4.0 6.0 0.00 0.00 0.00 53 1006.2
20260505050512 69 186 4.0 4.0 0.00 0.00 0.00 53 1006.1
20260505041439 69 177 4.0 10.0 0.00 0.00 0.00 54 1006.5
20260505040937 69 154 3.0 4.0 0.00 0.00 0.00 55 1006.7
20260505040434 70 179 1.0 7.0 0.00 0.00 0.00 55 1006.5
20260505035931 70 158 4.0 8.0 0.00 0.00 0.00 55 1006.7
20260505035427 70 170 4.0 6.0 0.00 0.00 0.00 55 1006.7
20260505034924 70 174 4.0 6.0 0.00 0.00 0.00 55 1006.8
20260505034420 70 190 2.0 9.0 0.00 0.00 0.00 55 1006.8
20260505033917 70 200 1.0 4.0 0.00 0.00 0.00 55 1006.9
20260505033414 69 205 1.0 4.0 0.00 0.00 0.00 56 1006.7
20260505032913 69 174 3.0 4.0 0.00 0.00 0.00 56 1006.9
20260505032409 70 252 1.0 3.0 0.00 0.00 0.00 56 1006.9
20260505031906 69 181 2.0 6.0 0.00 0.00 0.00 56 1006.7
20260505031403 69 138 4.0 4.0 0.00 0.00 0.00 56 1006.8
20260505030900 70 194 1.0 4.0 0.00 0.00 0.00 56 1006.8
20260505030355 69 187 2.0 6.0 0.00 0.00 0.00 56 1006.7
20260505025851 69 160 1.0 4.0 0.00 0.00 0.00 56 1006.6
20260505025349 69 165 1.0 4.0 0.00 0.00 0.00 56 1006.6
20260505024848 69 207 2.0 3.0 0.00 0.00 0.00 56 1006.5
20260505024345 70 195 1.0 3.0 0.00 0.00 0.00 56 1006.4
20260505023842 69 178 2.0 6.0 0.00 0.00 0.00 57 1006.3
20260505023339 69 192 2.0 2.0 0.00 0.00 0.00 57 1006.2
20260505022836 69 152 2.0 4.0 0.00 0.00 0.00 58 1006.2
20260505022333 69 160 2.0 6.0 0.00 0.00 0.00 59 1006.2
20260505021830 69 176 2.0 3.0 0.00 0.00 0.00 58 1006.1
20260505021326 69 171 1.0 2.0 0.00 0.00 0.00 59 1006.1
20260505020822 68 170 2.0 4.0 0.00 0.00 0.00 59 1006.0
20260505020318 68 145 0.0 2.0 0.00 0.00 0.00 60 1005.8
20260505015815 68 188 2.0 3.0 0.00 0.00 0.00 60 1005.7
20260505015312 68 172 0.0 0.0 0.00 0.00 0.00 60 1005.7
20260505014810 69 172 1.0 1.0 0.00 0.00 0.00 59 1005.6
20260505014307 69 160 1.0 2.0 0.00 0.00 0.00 58 1005.8
20260505013803 69 168 1.0 2.0 0.00 0.00 0.00 58 1005.8
20260505013300 69 178 1.0 2.0 0.00 0.00 0.00 58 1005.6
20260505012759 69 145 1.0 3.0 0.00 0.00 0.00 57 1005.5
20260505012256 70 200 2.0 3.0 0.00 0.00 0.00 57 1005.6
20260505011751 70 180 0.0 1.0 0.00 0.00 0.00 57 1005.6
20260505011248 70 164 1.0 3.0 0.00 0.00 0.00 56 1005.5
20260505010744 70 175 2.0 2.0 0.00 0.00 0.00 56 1005.4
20260505010241 70 168 2.0 3.0 0.00 0.00 0.00 55 1005.5
20260505005737 71 175 0.0 0.0 0.00 0.00 0.00 55 1005.6
20260505005234 71 139 2.0 2.0 0.00 0.00 0.00 54 1005.5
20260505004731 71 158 2.0 2.0 0.00 0.00 0.00 54 1005.4
20260505004227 72 153 2.0 2.0 0.00 0.00 0.00 52 1005.6
20260505003725 72 160 0.0 3.0 0.00 0.00 0.00 52 1005.7
20260505003223 72 173 2.0 3.0 0.00 0.00 0.00 51 1005.5
20260505002718 72 173 2.0 2.0 0.00 0.00 0.00 52 1005.4
20260505002216 72 179 4.0 4.0 0.00 0.00 0.00 51 1005.3
20260505001714 73 174 1.0 3.0 0.00 0.00 0.00 51 1005.5
20260505001211 73 196 3.0 6.0 0.00 0.00 0.00 50 1005.7
20260505000708 73 184 1.0 7.0 0.00 0.00 0.00 50 1005.6
20260505000206 73 189 2.0 2.0 0.00 0.00 0.00 49 1005.6
20260504235702 74 185 1.0 8.0 0.00 0.00 0.00 48 1005.7
20260504235158 74 143 3.0 6.0 0.00 0.00 0.00 48 1005.7
20260504234656 74 218 2.0 3.0 0.00 0.00 0.00 47 1005.7
20260504234153 74 186 4.0 6.0 0.00 0.00 0.00 46 1005.8
20260504233648 74 196 0.0 2.0 0.00 0.00 0.00 46 1006.1
20260504233144 74 141 1.0 6.0 0.00 0.00 0.00 45 1006.0
20260504232643 74 199 1.0 4.0 0.00 0.00 0.00 45 1006.1
20260504232139 75 169 4.0 6.0 0.00 0.00 0.00 44 1006.1
20260504231636 75 189 3.0 11.0 0.00 0.00 0.00 44 1006.0
20260504231132 76 163 3.0 7.0 0.00 0.00 0.00 43 1006.2
20260504230628 76 137 7.0 10.0 0.00 0.00 0.00 43 1006.0
20260504230127 76 212 3.0 8.0 0.00 0.00 0.00 43 1006.1
20260504225625 76 182 3.0 15.0 0.00 0.00 0.00 43 1006.1
20260504225121 76 208 8.0 11.0 0.00 0.00 0.00 44 1006.2
20260504224618 76 163 5.0 8.0 0.00 0.00 0.00 45 1006.1
20260504224115 75 197 3.0 6.0 0.00 0.00 0.00 48 1006.2
20260504223612 75 171 5.0 7.0 0.00 0.00 0.00 49 1006.3
20260504223108 75 121 3.0 4.0 0.00 0.00 0.00 51 1006.2
20260504222605 75 155 4.0 6.0 0.00 0.00 0.00 49 1006.3
20260504222102 75 208 2.0 6.0 0.00 0.00 0.00 50 1006.4
20260504221559 75 195 2.0 2.0 0.00 0.00 0.00 49 1006.6
20260504221055 75 176 0.0 3.0 0.00 0.00 0.00 49 1006.7
20260504220552 74 153 2.0 3.0 0.00 0.00 0.00 50 1006.5
20260504220049 74 199 2.0 7.0 0.00 0.00 0.00 48 1006.6
20260504215546 74 199 2.0 3.0 0.00 0.00 0.00 49 1006.5
20260504215043 74 188 2.0 3.0 0.00 0.00 0.00 48 1006.5
20260504214539 74 152 4.0 7.0 0.00 0.00 0.00 49 1006.7
20260504214036 74 213 0.0 3.0 0.00 0.00 0.00 47 1006.9
20260504213532 75 214 2.0 3.0 0.00 0.00 0.00 47 1007.0
20260504213030 75 210 3.0 4.0 0.00 0.00 0.00 46 1007.2
20260504212525 75 293 1.0 1.0 0.00 0.00 0.00 48 1007.2
20260504212023 76 187 3.0 6.0 0.00 0.00 0.00 46 1007.3
20260504211520 76 315 2.0 2.0 0.00 0.00 0.00 47 1007.4
20260504211017 75 56 0.0 2.0 0.00 0.00 0.00 46 1007.5
20260504210514 75 189 3.0 7.0 0.00 0.00 0.00 48 1007.4
20260504210010 75 210 2.0 6.0 0.00 0.00 0.00 48 1007.6
20260504205508 76 317 1.0 4.0 0.00 0.00 0.00 50 1007.6
20260504205006 76 216 3.0 3.0 0.00 0.00 0.00 48 1007.6
20260504204504 75 217 2.0 4.0 0.00 0.00 0.00 49 1007.7
20260504204003 75 196 3.0 8.0 0.00 0.00 0.00 49 1007.9
20260504203500 76 273 2.0 4.0 0.00 0.00 0.00 48 1007.9
20260504202956 76 188 4.0 6.0 0.00 0.00 0.00 46 1007.9
20260504202452 77 235 0.0 3.0 0.00 0.00 0.00 48 1008.0
20260504201949 74 221 2.0 7.0 0.00 0.00 0.00 50 1008.0
20260504201447 74 232 1.0 2.0 0.00 0.00 0.00 50 1008.4
20260504200944 74 224 0.0 6.0 0.00 0.00 0.00 51 1008.1
20260504200441 75 169 1.0 2.0 0.00 0.00 0.00 50 1008.2
20260504195937 75 190 2.0 8.0 0.00 0.00 0.00 50 1008.3
20260504195433 75 159 2.0 7.0 0.00 0.00 0.00 50 1008.5
20260504194930 74 156 4.0 7.0 0.00 0.00 0.00 51 1008.4
20260504194426 75 141 7.0 9.0 0.00 0.00 0.00 50 1008.3
20260504193922 74 287 3.0 3.0 0.00 0.00 0.00 52 1008.6
20260504193420 73 292 1.0 3.0 0.00 0.00 0.00 54 1008.5
20260504192918 73 152 4.0 7.0 0.00 0.00 0.00 56 1008.7
20260504192415 72 288 0.0 1.0 0.00 0.00 0.00 59 1009.0
20260504191914 71 216 1.0 2.0 0.00 0.00 0.00 59 1009.0
20260504191411 70 191 2.0 2.0 0.00 0.00 0.00 60 1008.9
20260504190906 69 349 0.0 1.0 0.00 0.00 0.00 62 1009.1
20260504190403 69 294 2.0 3.0 0.00 0.00 0.00 62 1009.5
20260504185859 68 179 1.0 2.0 0.00 0.00 0.00 64 1009.2
20260504185357 68 164 1.0 2.0 0.00 0.00 0.00 64 1009.1
20260504184852 68 183 0.0 1.0 0.00 0.00 0.00 64 1009.4
20260504184348 68 204 2.0 4.0 0.00 0.00 0.00 62 1009.5
20260504183844 69 286 0.0 3.0 0.00 0.00 0.00 60 1009.5
20260504183342 69 217 1.0 2.0 0.00 0.00 0.00 61 1009.4
20260504182839 69 178 2.0 3.0 0.00 0.00 0.00 60 1009.4
20260504182337 69 276 3.0 7.0 0.00 0.00 0.00 59 1009.5
20260504181833 69 222 3.0 8.0 0.00 0.00 0.00 59 1009.3
20260504181331 69 159 7.0 9.0 0.00 0.00 0.00 58 1009.2
20260504180830 70 188 2.0 4.0 0.00 0.00 0.00 58 1009.0
20260504180328 70 312 3.0 6.0 0.00 0.00 0.00 56 1009.0
20260504175826 71 185 4.0 7.0 0.00 0.00 0.00 56 1009.0
20260504175322 71 141 2.0 7.0 0.00 0.00 0.00 58 1008.5
20260504174821 71 174 4.0 6.0 0.00 0.00 0.00 57 1008.4
20260504174318 70 199 4.0 11.0 0.00 0.00 0.00 56 1008.4
20260504173814 70 178 7.0 10.0 0.00 0.00 0.00 56 1008.2
20260504173311 70 177 3.0 6.0 0.00 0.00 0.00 57 1008.6
20260504172808 70 166 3.0 6.0 0.00 0.00 0.00 57 1008.5
20260504172305 70 169 4.0 8.0 0.00 0.00 0.00 57 1008.7
20260504171800 70 185 4.0 7.0 0.00 0.00 0.00 61 1008.6
20260504171258 70 205 2.0 4.0 0.00 0.00 0.00 58 1008.8
20260504170755 69 214 2.0 3.0 0.00 0.00 0.00 60 1008.6
20260504170252 68 166 5.0 8.0 0.00 0.00 0.00 60 1008.4
20260504160210 66 196 2.0 2.0 0.00 0.00 0.00 62 1009.5
20260504151138 64 184 1.0 7.0 0.00 0.00 0.00 63 1009.5
20260504150636 63 204 0.0 3.0 0.00 0.00 0.00 63 1009.6
20260504150132 63 162 2.0 3.0 0.00 0.00 0.00 64 1009.6
20260504141101 61 173 3.0 6.0 0.00 0.00 0.00 64 1009.7
20260504140557 61 178 1.0 7.0 0.00 0.00 0.00 65 1009.7